Date,TemperatureHighF,TemperatureAvgF,TemperatureLowF,DewpointHighF,DewpointAvgF,DewpointLowF,HumidityHigh,HumidityAvg,HumidityLow,PressureMaxIn,PressureMinIn,WindSpeedMaxMPH,WindSpeedAvgMPH,GustSpeedMaxMPH,PrecipitationSumIn
2013-1-1,24,14,16,16,-18,-100,84,55,67,32.31,32.11,10,-279,14,0.00
2013-1-2,23,9,14,13,-41,-100,84,41,67,32.35,32.30,6,-473,10,0.00
2013-1-3,22,8,11,14,-47,-100,88,39,70,32.33,32.14,4,-520,6,0.01
2013-1-4,28,9,13,24,-53,-100,89,31,67,32.22,32.12,5,-588,7,0.00
2013-1-5,33,16,22,23,-29,-100,88,44,62,32.13,31.86,3,-410,5,0.01
2013-1-6,32,17,22,26,-28,-100,87,45,68,31.87,31.73,10,-407,10,0.00
2013-1-7,38,21,30,29,-24,-100,79,44,64,31.76,31.43,16,-390,22,0.00
2013-1-8,41,35,33,32,25,20,75,67,55,31.74,31.45,22,8,31,0.00
2013-1-9,42,38,30,34,31,28,93,77,59,31.58,31.21,22,10,33,0.16
2013-1-10,30,22,15,28,8,-100,93,80,87,31.52,31.26,13,-126,16,0.00
2013-1-11,15,5,8,11,-57,-100,88,34,84,32.07,31.53,9,-594,12,0.00
2013-1-12,12,4,4,9,-46,-100,88,44,84,32.20,32.07,9,-488,13,0.01
2013-1-13,12,3,4,7,-61,-100,88,31,79,32.27,32.19,4,-624,6,0.00
2013-1-14,16,3,13,13,-80,-100,87,15,83,32.27,32.17,5,-820,12,0.00
2013-1-15,32,8,16,25,-63,-100,88,24,72,32.35,32.23,7,-690,11,0.02
2013-1-16,37,6,22,26,-75,-100,87,14,56,32.26,32.21,4,-797,10,0.03
2013-1-17,32,6,26,22,-75,-100,74,14,62,32.24,31.99,8,-788,8,0.00
2013-1-18,45,20,31,22,-42,-100,59,20,31,32.02,31.72,10,-508,16,0.00
2013-1-19,40,25,27,19,-18,-100,57,31,33,32.00,31.87,7,-286,9,0.00
2013-1-20,41,17,32,21,-47,-100,54,20,39,32.06,31.93,5,-551,8,0.00
2013-1-21,40,18,27,22,-38,-100,63,27,38,31.95,31.81,7,-478,7,0.00
2013-1-22,37,13,27,16,-55,-100,59,19,38,31.91,31.77,5,-595,8,0.00
2013-1-23,41,21,24,31,-23,-100,78,41,54,31.86,31.63,20,-361,24,0.00
2013-1-24,40,36,32,33,28,24,88,71,57,31.82,31.62,23,6,27,0.01
2013-1-25,41,36,31,34,26,-100,87,71,61,31.81,31.52,19,-13,25,0.02
2013-1-26,39,35,29,33,30,24,91,83,69,31.53,31.40,16,4,18,0.01
2013-1-27,32,28,25,23,19,-100,82,71,57,31.61,31.50,10,-9,13,0.01
2013-1-28,30,19,24,22,-14,-100,91,53,56,31.61,31.48,15,-268,21,0.00
2013-1-29,29,15,23,23,-25,-100,92,53,73,31.85,31.49,9,-384,15,0.02
2013-1-30,37,29,25,30,11,-100,91,69,66,31.82,31.72,20,-112,25,0.01
2013-1-31,38,37,36,31,29,28,78,73,69,31.83,31.73,17,5,23,0.02
2013-2-1,40,36,33,31,27,23,89,70,57,32.06,31.72,20,5,23,0.00
2013-2-2,41,31,28,27,9,-100,77,57,53,32.15,31.91,21,-111,21,0.00
2013-2-3,40,28,28,27,-2,-100,78,52,50,31.91,31.68,9,-208,14,0.00
2013-2-4,41,37,35,29,26,24,70,65,55,31.68,31.60,15,4,24,0.00
2013-2-5,44,36,33,32,25,-100,83,67,50,31.61,31.37,17,-18,23,0.00
2013-2-6,36,30,28,29,18,-100,93,75,61,31.75,31.52,13,-59,17,0.03
2013-2-7,34,22,25,25,-13,-100,82,51,63,31.72,31.57,5,-291,10,0.01
2013-2-8,35,26,27,27,6,-100,91,67,68,31.69,31.63,12,-144,17,0.01
2013-2-9,30,27,25,24,19,-100,92,75,63,31.81,31.61,13,-6,16,0.00
2013-2-10,32,26,23,24,17,-100,91,74,54,31.95,31.82,8,-18,15,0.04
2013-2-11,33,17,21,21,-27,-100,77,43,59,31.89,31.83,10,-384,14,0.00
2013-2-12,35,28,28,28,10,-100,85,66,68,31.93,31.79,18,-110,22,0.00
2013-2-13,38,36,32,30,27,23,81,71,62,31.88,31.70,17,7,28,0.00
2013-2-14,35,32,30,24,21,-100,72,65,58,32.13,31.89,16,-4,21,0.00
2013-2-15,43,36,32,29,26,24,78,68,55,32.18,31.96,11,3,17,0.00
2013-2-16,45,30,28,32,4,-100,91,58,53,31.95,31.42,19,-184,22,0.01
2013-2-17,32,30,27,29,22,19,92,75,65,31.78,31.47,14,3,20,0.02
2013-2-18,37,27,26,23,4,-100,89,53,41,31.80,31.46,15,-116,19,0.00
2013-2-19,36,28,27,24,4,-100,77,53,40,31.46,31.29,8,-123,13,0.00
2013-2-20,33,29,26,24,20,16,90,71,56,31.63,31.41,14,4,17,0.01
2013-2-21,31,23,19,22,2,-100,83,57,48,31.76,31.63,13,-110,19,0.00
2013-2-22,37,31,27,27,19,-100,78,67,52,31.71,31.29,19,-10,26,0.00
2013-2-23,34,28,26,27,16,-100,90,63,48,31.87,31.26,16,-4,25,0.00
2013-2-24,33,28,23,19,17,15,75,63,53,32.00,31.85,18,4,23,0.00
2013-2-25,35,27,26,26,7,-100,84,59,50,31.84,31.58,13,-101,22,0.00
2013-2-26,33,28,25,22,17,-100,83,66,58,32.02,31.72,14,-7,20,0.00
2013-2-27,37,20,24,20,-29,-100,74,33,47,32.02,31.92,12,-398,16,0.00
2013-2-28,40,33,28,31,26,18,88,76,59,32.02,31.92,11,3,16,0.01
2013-3-1,50,41,35,36,33,31,85,73,56,32.06,31.94,9,2,16,0.00
2013-3-2,52,43,36,36,31,29,91,64,42,31.95,31.47,13,4,16,0.07
2013-3-3,38,30,25,35,17,-100,92,68,42,31.77,31.34,24,-36,32,0.05
2013-3-4,34,23,19,22,0,-100,91,57,40,32.05,31.77,10,-124,13,0.02
2013-3-5,38,19,19,20,-36,-100,75,28,40,31.90,31.53,15,-451,16,0.00
2013-3-6,43,33,26,33,26,18,92,76,55,31.52,31.28,12,3,19,0.03
2013-3-7,41,34,30,30,24,19,93,68,44,31.69,31.44,11,4,16,0.05
2013-3-8,42,29,24,24,6,-100,80,54,34,31.70,31.56,12,-114,17,0.00
2013-3-9,43,34,28,24,21,19,73,60,46,32.06,31.70,15,3,21,0.01
2013-3-10,45,30,29,28,4,-100,81,52,35,32.08,31.80,16,-145,24,0.00
2013-3-11,43,36,33,28,20,-100,83,55,32,31.86,31.78,22,-6,28,0.00
2013-3-12,47,38,31,33,24,-100,77,60,49,31.87,31.69,10,-9,18,0.00
2013-3-13,56,43,41,34,17,-100,73,47,31,31.76,31.68,13,-96,19,0.00
2013-3-14,61,49,40,35,30,27,63,49,33,31.71,31.45,16,3,19,0.00
2013-3-15,52,46,40,35,31,28,68,57,40,31.59,31.48,19,6,23,0.00
2013-3-16,44,39,34,31,26,-100,90,65,49,31.59,31.24,13,-18,20,0.01
2013-3-17,35,29,24,32,21,15,91,73,50,31.70,31.19,20,8,29,0.00
2013-3-18,36,27,24,24,20,12,92,74,44,31.81,31.64,21,8,24,0.00
2013-3-19,41,26,22,23,-5,-100,92,48,42,32.00,31.67,11,-207,17,0.14
2013-3-20,53,38,30,38,28,18,92,69,45,31.66,31.06,26,10,40,0.06
2013-3-21,33,28,23,27,20,14,91,73,55,31.69,31.33,17,5,24,0.00
2013-3-22,30,23,21,22,17,-100,92,80,67,31.94,31.68,9,-19,17,0.06
2013-3-23,30,20,18,20,-1,-100,91,67,54,32.08,31.95,9,-154,14,0.03
2013-3-24,36,18,18,19,-28,-100,88,37,31,32.13,31.90,8,-358,13,0.01
2013-3-25,43,26,19,20,-10,-100,70,40,38,31.93,31.66,9,-208,12,0.00
2013-3-26,51,40,32,28,23,20,69,53,37,31.66,31.50,11,2,14,0.00
2013-3-27,51,41,33,34,28,23,71,59,42,31.61,31.50,12,2,22,0.00
2013-3-28,53,43,36,39,34,31,85,73,51,31.65,31.56,14,2,15,0.00
2013-3-29,51,43,38,39,35,31,91,75,49,31.79,31.66,8,1,15,0.02
2013-3-30,55,45,37,36,29,-100,82,59,34,31.89,31.68,12,-8,18,0.00
2013-3-31,60,48,35,34,29,26,69,50,32,31.70,31.46,12,3,16,0.00
2013-4-1,61,50,38,34,29,26,69,47,30,31.55,31.40,14,3,17,0.00
2013-4-2,61,48,40,38,32,29,67,55,37,31.61,31.46,14,3,17,0.00
2013-4-3,59,44,43,39,20,-100,76,52,34,31.62,31.49,11,-103,17,0.00
2013-4-4,59,50,41,41,35,30,75,58,41,31.53,31.22,17,4,22,0.00
2013-4-5,52,46,40,40,35,31,81,66,45,31.44,31.23,21,7,23,0.00
2013-4-6,48,39,35,40,30,-100,91,75,48,31.47,31.37,15,-30,28,0.18
2013-4-7,45,38,34,39,30,-100,92,77,55,31.41,31.18,13,-8,24,0.07
2013-4-8,36,30,23,28,14,-100,84,55,42,31.93,31.34,18,-17,28,0.00
2013-4-9,32,18,20,14,-18,-100,63,41,46,32.11,31.94,9,-259,21,0.00
2013-4-10,50,44,37,40,34,27,91,70,53,31.74,31.39,20,8,26,0.05
2013-4-11,43,39,35,35,28,23,89,67,48,31.68,31.50,16,6,24,0.00
2013-4-12,50,39,31,26,21,-100,75,52,31,31.72,31.14,16,-7,20,0.00
2013-4-13,43,34,27,35,26,17,92,73,47,31.40,31.03,21,8,29,0.07
2013-4-14,39,30,26,28,23,-100,92,78,57,31.57,31.41,14,-6,25,0.08
2013-4-15,34,27,21,15,11,7,65,52,39,31.84,31.57,18,6,26,0.00
2013-4-16,34,24,20,15,-4,-100,62,44,37,32.06,31.84,16,-123,25,0.00
2013-4-17,41,25,20,12,-14,-100,55,30,25,32.11,31.95,13,-208,20,0.00
2013-4-18,46,37,29,24,17,-100,57,46,39,31.98,31.86,20,-6,23,0.00
2013-4-19,48,41,36,36,29,-100,76,65,54,31.85,31.47,18,-5,21,0.00
2013-4-20,48,35,38,34,9,-100,79,54,51,31.64,31.49,22,-163,27,0.00
2013-4-21,46,35,22,33,24,-100,92,72,50,31.88,31.54,14,-27,22,0.00
2013-4-22,37,24,19,22,3,-100,90,59,43,32.17,31.88,16,-122,21,0.06
2013-4-23,44,28,24,24,-6,-100,75,44,38,32.13,31.84,13,-212,14,0.00
2013-4-24,56,40,29,25,15,-100,74,45,27,31.96,31.54,18,-58,20,0.00
2013-4-25,60,50,40,28,26,23,57,39,25,31.56,31.39,19,5,26,0.00
2013-4-26,66,53,40,35,30,26,61,42,27,31.71,31.57,17,6,24,0.00
2013-4-27,63,54,47,36,30,24,57,41,24,31.62,31.43,18,5,33,0.00
2013-4-28,53,47,42,38,34,30,81,61,47,31.53,31.38,20,5,25,0.01
2013-4-29,49,40,31,37,26,-100,91,62,29,31.47,31.17,27,0,46,0.01
2013-4-30,38,30,27,27,18,-100,92,64,42,32.00,31.47,12,-8,18,0.01
2013-5-1,47,35,26,32,24,19,93,69,35,32.29,32.01,12,2,14,0.02
2013-5-2,62,42,31,24,6,-100,59,32,16,32.33,31.82,15,-112,20,0.00
2013-5-3,52,48,43,40,30,18,84,54,26,31.82,31.71,14,4,19,0.01
2013-5-4,56,48,40,38,34,31,79,59,39,31.85,31.69,16,2,20,0.01
2013-5-5,68,54,43,38,31,-100,67,45,24,31.69,31.35,12,-7,22,0.00
2013-5-6,72,58,44,40,31,-100,65,40,17,31.44,31.17,12,-8,19,0.00
2013-5-7,72,60,48,39,34,30,54,39,27,31.40,31.22,17,4,24,0.00
2013-5-8,74,62,50,40,35,30,57,37,20,31.50,31.35,13,5,22,0.00
2013-5-9,74,61,49,48,39,35,66,45,29,31.55,31.41,13,4,17,0.08
2013-5-10,75,62,50,44,38,33,66,43,22,31.68,31.51,15,4,24,0.00
2013-5-11,78,62,50,44,36,-100,65,41,24,31.65,31.44,15,-17,21,0.00
2013-5-12,80,65,57,47,36,-100,55,39,23,31.50,31.26,16,-36,22,0.00
2013-5-13,76,60,48,51,45,33,88,59,31,31.41,31.02,27,4,45,0.39
2013-5-14,61,51,44,37,32,24,70,50,32,31.54,31.41,12,5,23,0.00
2013-5-15,61,52,42,39,32,24,65,47,36,31.58,31.34,11,3,17,0.00
2013-5-16,57,49,42,43,39,35,92,71,51,31.43,31.33,7,2,11,0.17
2013-5-17,48,45,43,45,37,-100,92,81,66,31.49,31.35,8,-19,11,0.14
2013-5-18,56,48,44,47,43,38,93,83,62,31.60,31.47,16,4,20,0.04
2013-5-19,53,47,44,43,38,-100,83,72,61,31.76,31.60,9,-8,18,0.03
2013-5-20,65,54,44,44,39,-100,82,61,38,31.80,31.47,18,-7,26,0.00
2013-5-21,70,59,47,43,40,36,73,51,31,31.47,30.98,20,6,26,0.00
2013-5-22,57,46,36,45,39,32,92,79,59,31.51,30.98,20,8,27,0.18
2013-5-23,52,43,35,35,31,21,91,66,34,31.58,31.47,19,4,22,0.00
2013-5-24,56,46,40,36,32,29,72,60,36,31.57,31.38,22,6,33,0.00
2013-5-25,58,46,36,36,32,29,78,59,38,31.58,31.48,9,2,14,0.00
2013-5-26,64,50,39,44,37,31,76,63,41,31.53,31.30,14,3,19,0.01
2013-5-27,61,51,45,46,42,39,91,73,45,31.43,31.22,12,4,16,0.27
2013-5-28,54,48,44,48,42,-100,94,85,69,31.31,31.24,9,-9,16,0.40
2013-5-29,64,51,42,44,40,36,86,69,38,31.31,31.06,17,3,28,0.07
2013-5-30,55,48,43,39,36,33,83,67,45,31.60,31.31,15,6,23,0.00
2013-5-31,57,45,42,36,24,-100,71,53,38,31.79,31.61,12,-70,17,0.00
2013-6-1,65,53,40,38,33,27,70,49,27,31.82,31.46,7,2,15,0.00
2013-6-2,57,50,42,47,42,33,91,77,41,31.46,31.27,15,3,15,0.26
2013-6-3,58,48,42,46,42,40,92,81,60,31.60,31.43,13,3,21,0.09
2013-6-4,62,53,45,43,37,34,88,57,38,31.71,31.59,14,5,21,0.00
2013-6-5,72,56,44,46,33,-100,76,49,27,31.64,31.37,9,-40,12,0.00
2013-6-6,77,66,55,49,41,31,55,41,31,31.48,31.24,7,2,11,0.00
2013-6-7,74,65,58,52,45,41,66,49,37,31.30,31.14,13,4,26,0.00
2013-6-8,74,47,55,42,0,-100,49,26,24,31.37,31.23,13,-255,21,0.00
2013-6-9,76,50,54,43,3,-100,55,26,13,31.34,31.13,21,-225,29,0.00
2013-6-10,74,63,51,38,32,28,47,31,20,31.29,31.04,17,4,20,0.00
2013-6-11,76,60,55,44,31,-100,51,37,26,31.33,31.07,18,-40,25,0.00
2013-6-12,65,53,50,44,33,-100,67,53,45,31.39,31.31,19,-45,25,0.00
2013-6-13,56,48,44,46,42,37,92,80,52,31.58,31.36,12,4,19,0.33
2013-6-14,60,49,42,43,37,33,88,65,39,31.66,31.58,14,3,22,0.01
2013-6-15,72,56,40,40,35,32,81,50,23,31.65,31.39,15,2,15,0.00
2013-6-16,76,61,49,44,32,-100,58,38,22,31.52,31.33,12,-18,16,0.00
2013-6-17,78,59,55,46,24,-100,65,36,24,31.40,31.15,10,-123,28,0.00
2013-6-18,78,65,57,52,42,-100,71,46,30,31.17,30.95,15,-17,19,0.00
2013-6-19,61,50,46,49,41,-100,93,79,61,31.29,30.97,14,-27,18,0.77
2013-6-20,56,48,43,43,39,36,91,74,48,31.59,31.30,23,9,29,0.22
2013-6-21,62,50,38,43,38,-100,91,67,41,31.63,31.50,12,-7,20,0.00
2013-6-22,63,54,45,44,41,37,82,63,40,31.56,31.43,8,2,15,0.00
2013-6-23,70,56,45,46,37,-100,78,55,37,31.45,31.10,7,-30,12,0.00
2013-6-24,67,57,54,53,45,-100,92,68,44,31.11,30.96,12,-22,15,0.14
2013-6-25,66,56,50,52,49,44,93,78,45,31.35,31.11,11,3,20,0.09
2013-6-26,63,56,51,53,49,47,93,80,57,31.60,31.34,13,3,18,0.02
2013-6-27,80,65,51,55,50,45,87,62,31,31.67,31.52,10,3,14,0.00
2013-6-28,84,58,59,56,24,-100,66,42,34,31.63,31.40,10,-176,14,0.00
2013-6-29,82,71,60,60,54,50,73,56,42,31.46,31.24,12,4,25,0.01
2013-6-30,85,56,63,61,21,-100,71,44,36,31.41,31.29,11,-219,15,0.00
2013-7-1,83,43,64,61,-7,-100,67,33,32,31.45,31.29,5,-397,9,0.00
2013-7-2,87,45,68,58,-8,-100,57,28,32,31.39,31.18,7,-397,10,0.00
2013-7-3,82,39,72,60,-20,-100,61,25,36,31.27,31.13,7,-477,14,0.00
2013-7-4,81,55,62,52,16,-100,62,36,30,31.27,31.05,10,-209,15,0.00
2013-7-5,79,66,59,54,35,-100,50,34,19,31.23,31.03,11,-35,20,0.00
2013-7-6,78,69,56,45,39,35,57,36,22,31.28,31.10,11,4,16,0.00
2013-7-7,81,64,55,46,31,-100,55,35,25,31.26,31.08,15,-66,17,0.00
2013-7-8,77,68,60,50,42,39,68,41,28,31.42,31.16,15,4,19,0.06
2013-7-9,81,70,56,47,43,38,64,40,23,31.55,31.35,15,2,16,0.00
2013-7-10,84,42,61,46,-16,-100,42,21,22,31.41,31.05,8,-387,12,0.00
2013-7-11,79,63,63,46,27,-100,52,32,22,31.16,31.06,18,-102,26,0.00
2013-7-12,79,66,56,52,45,40,67,49,29,31.25,31.12,23,2,32,0.06
2013-7-13,76,65,58,40,30,-100,49,29,18,31.45,31.24,14,-16,17,0.00
2013-7-14,82,55,51,39,12,-100,53,28,16,31.55,31.28,7,-165,12,0.00
2013-7-15,81,45,57,43,-10,-100,47,21,18,31.36,31.17,8,-336,14,0.00
2013-7-16,82,49,60,53,5,-100,57,33,24,31.41,31.22,19,-270,29,0.00
2013-7-17,84,54,65,56,13,-100,66,38,33,31.39,31.21,17,-251,28,0.00
2013-7-18,81,52,60,48,4,-100,52,28,21,31.50,31.34,9,-262,15,0.00
2013-7-19,83,41,59,40,-19,-100,36,17,20,31.47,31.25,13,-398,15,0.00
2013-7-20,80,40,60,39,-21,-100,38,18,21,31.37,31.14,7,-417,12,0.00
2013-7-21,88,49,60,35,-9,-100,37,17,10,31.27,31.05,12,-310,17,0.00
2013-7-22,84,45,61,37,-14,-100,32,16,17,31.28,31.13,10,-350,14,0.00
2013-7-23,86,50,60,36,-5,-100,35,19,15,31.44,31.24,12,-287,15,0.00
2013-7-24,80,30,64,40,-43,-100,32,12,20,31.38,31.21,5,-574,9,0.00
2013-7-25,80,41,63,47,-20,-100,47,19,17,31.42,31.26,15,-428,22,0.00
2013-7-26,82,41,63,42,-24,-100,35,16,14,31.49,31.27,5,-423,8,0.00
2013-7-27,80,54,66,40,0,-100,33,18,15,31.33,31.12,11,-246,19,0.00
2013-7-28,81,70,60,36,31,27,40,25,14,31.24,31.08,12,2,17,0.00
2013-7-29,80,69,58,44,34,16,55,30,9,31.28,31.15,15,4,33,0.00
2013-7-30,81,70,57,45,35,23,46,29,18,31.46,31.28,9,2,16,0.00
2013-7-31,86,66,58,40,25,-100,41,26,16,31.54,31.26,11,-73,18,0.00
2013-8-1,74,62,54,56,48,36,92,64,25,31.36,31.23,11,3,23,0.37
2013-8-2,66,56,48,52,48,46,91,75,52,31.53,31.29,12,3,16,0.00
2013-8-3,71,59,48,50,47,45,90,65,41,31.59,31.45,13,2,19,0.00
2013-8-4,80,66,52,50,44,36,79,50,23,31.52,31.32,7,1,13,0.00
2013-8-5,82,69,57,45,41,35,53,37,19,31.40,31.21,14,3,22,0.00
2013-8-6,80,69,57,46,43,41,60,40,25,31.39,31.26,11,2,14,0.00
2013-8-7,81,44,57,46,-5,-100,57,28,22,31.35,31.19,8,-332,13,0.00
2013-8-8,83,62,58,48,24,-100,48,31,15,31.38,31.20,17,-109,26,0.00
2013-8-9,84,69,63,52,45,-100,58,45,24,31.36,31.16,37,-13,46,0.00
2013-8-10,82,56,56,52,24,-100,73,43,23,31.39,31.22,20,-148,24,0.00
2013-8-11,80,70,60,48,43,39,53,38,26,31.36,31.25,16,2,19,0.00
2013-8-12,82,60,59,46,24,-100,54,34,20,31.42,31.25,16,-125,21,0.00
2013-8-13,81,68,61,46,36,-100,59,36,22,31.50,31.30,16,-39,20,0.00
2013-8-14,81,53,56,45,9,-100,59,31,16,31.45,31.26,12,-218,19,0.00
2013-8-15,81,41,60,41,-19,-100,45,18,19,31.36,31.15,5,-404,9,0.00
2013-8-16,81,41,64,47,-20,-100,39,17,19,31.34,31.17,8,-415,16,0.00
2013-8-17,84,69,64,49,37,-100,54,36,24,31.40,31.18,14,-59,16,0.00
2013-8-18,78,50,62,49,5,-100,60,31,24,31.38,31.25,11,-271,17,0.00
2013-8-19,80,43,59,44,-11,-100,51,24,25,31.42,31.22,12,-362,17,0.00
2013-8-20,83,71,61,45,40,31,50,34,19,31.38,31.23,15,5,24,0.00
2013-8-21,82,61,54,38,18,-100,50,25,11,31.45,31.27,11,-112,15,0.00
2013-8-22,84,72,59,40,36,32,40,28,17,31.41,31.14,8,2,13,0.00
2013-8-23,81,70,57,54,47,37,79,45,27,31.28,31.03,15,5,25,0.03
2013-8-24,84,70,57,49,44,36,67,42,19,31.26,31.04,21,5,29,0.00
2013-8-25,84,68,58,53,45,42,83,46,24,31.28,31.06,26,7,33,0.30
2013-8-26,80,66,55,56,48,38,84,56,30,31.39,31.22,11,3,17,0.00
2013-8-27,84,65,56,47,35,-100,58,39,20,31.37,31.16,19,-51,27,0.00
2013-8-28,77,69,58,52,48,43,69,48,37,31.34,31.21,19,6,26,0.00
2013-8-29,85,57,59,54,27,-100,70,46,28,31.39,31.15,17,-152,23,0.01
2013-8-30,78,66,55,54,48,41,87,57,30,31.49,31.36,15,4,19,0.00
2013-8-31,82,66,55,46,38,-100,67,42,26,31.51,31.29,11,-39,14,0.00
2013-9-1,84,46,57,44,-3,-100,57,28,20,31.37,31.14,8,-314,15,0.00
2013-9-2,82,71,62,46,40,-100,45,34,17,31.25,31.17,14,-7,18,0.00
2013-9-3,74,66,62,56,45,-100,61,50,40,31.39,31.25,11,-30,14,0.00
2013-9-4,84,56,59,55,22,-100,79,45,25,31.46,31.28,9,-196,16,0.00
2013-9-5,75,67,58,60,52,-100,88,61,40,31.39,31.22,21,-6,27,0.05
2013-9-6,75,64,56,58,53,46,92,71,45,31.41,31.30,14,5,20,0.01
2013-9-7,78,65,54,50,46,42,80,52,32,31.48,31.26,13,5,17,0.00
2013-9-8,67,58,51,53,45,42,89,63,43,31.43,31.34,11,4,16,0.09
2013-9-9,73,62,54,49,46,42,74,57,41,31.50,31.37,15,4,22,0.00
2013-9-10,78,65,51,47,44,37,74,50,23,31.53,31.37,10,3,16,0.00
2013-9-11,84,66,54,47,38,-100,66,41,17,31.59,31.41,18,-28,28,0.00
2013-9-12,82,62,63,47,25,-100,49,33,26,31.50,31.21,13,-132,18,0.00
2013-9-13,82,65,62,49,33,-100,55,37,23,31.24,31.04,18,-79,21,0.00
2013-9-14,75,66,60,51,46,-100,70,50,33,31.35,31.17,11,-7,21,0.00
2013-9-15,82,69,60,54,47,44,63,47,30,31.35,31.07,23,6,28,0.23
2013-9-16,80,63,58,55,38,-100,75,48,26,31.23,31.02,20,-57,25,0.04
2013-9-17,65,57,50,49,46,42,84,68,44,31.18,30.95,16,5,21,0.01
2013-9-18,55,49,46,43,39,36,84,69,51,31.61,31.11,15,5,23,0.09
2013-9-19,64,52,45,38,30,-100,72,51,28,31.73,31.50,12,-27,17,0.00
2013-9-20,75,58,40,37,31,25,72,42,17,31.53,31.09,10,3,16,0.00
2013-9-21,66,61,50,39,32,25,51,35,21,31.10,30.96,18,6,20,0.00
2013-9-22,57,51,47,48,42,38,89,72,49,31.20,31.02,12,2,17,0.07
2013-9-23,54,48,43,43,38,34,87,69,52,31.48,31.20,12,3,18,0.03
2013-9-24,49,45,42,44,40,35,94,84,58,31.48,31.28,12,4,14,0.21
2013-9-25,43,39,38,41,37,-100,95,93,91,31.37,31.25,9,-7,15,0.50
2013-9-26,46,41,37,38,34,31,94,78,65,31.62,31.38,11,2,17,0.05
2013-9-27,47,39,30,36,31,-100,91,77,59,31.69,31.56,8,-8,12,0.01
2013-9-28,58,49,42,43,39,35,78,69,54,31.55,31.21,30,14,34,0.00
2013-9-29,53,45,39,43,38,33,90,76,64,31.29,30.99,31,16,38,0.13
2013-9-30,47,43,38,40,34,27,93,74,52,31.52,31.03,24,12,35,0.24
2013-10-1,48,42,37,36,34,31,89,74,55,31.66,31.50,20,3,21,0.02
2013-10-2,48,40,34,33,29,26,77,64,45,31.77,31.53,13,4,16,0.01
2013-10-3,43,39,37,30,28,24,73,63,53,32.01,31.52,18,6,27,0.00
2013-10-4,49,40,31,28,24,22,70,54,38,32.18,32.02,11,2,15,0.00
2013-10-5,57,43,31,28,24,-100,81,50,25,32.11,31.91,13,-6,18,0.00
2013-10-6,66,50,36,36,29,25,70,47,27,31.93,31.52,11,3,16,0.00
2013-10-7,63,50,42,36,31,28,77,49,30,31.52,31.23,15,4,21,0.00
2013-10-8,47,41,36,34,31,28,81,67,52,31.55,31.38,15,3,15,0.00
2013-10-9,52,42,35,35,33,30,90,71,50,31.65,31.43,10,3,13,0.00
2013-10-10,46,40,34,35,31,-100,88,75,62,31.52,31.40,7,-9,11,0.00
2013-10-11,50,42,38,32,27,25,70,57,40,31.68,31.52,14,3,16,0.00
2013-10-12,47,39,33,30,27,25,77,63,46,31.71,31.61,7,2,10,0.00
2013-10-13,49,40,33,32,29,27,80,65,51,31.84,31.70,13,4,17,0.00
2013-10-14,48,41,37,31,29,26,71,62,49,32.00,31.84,9,3,13,0.00
2013-10-15,50,40,28,30,27,25,87,63,42,32.06,31.81,10,2,15,0.00
2013-10-16,46,39,34,32,26,-100,73,62,53,31.80,31.71,8,-8,12,0.00
2013-10-17,45,39,35,34,31,29,83,75,63,31.91,31.77,6,1,7,0.01
2013-10-18,52,35,29,31,10,-100,91,56,41,31.98,31.75,10,-145,14,0.00
2013-10-19,57,37,39,32,-2,-100,62,34,31,31.78,31.52,7,-227,14,0.00
2013-10-20,56,47,41,35,28,-100,66,51,40,31.69,31.58,11,-19,12,0.00
2013-10-21,57,47,36,38,34,30,79,63,46,31.83,31.68,13,3,17,0.00
2013-10-22,59,48,37,39,36,33,86,65,43,31.82,31.65,5,1,7,0.00
2013-10-23,60,45,37,35,27,-100,73,56,40,31.77,31.64,7,-40,8,0.00
2013-10-24,59,47,39,33,31,28,70,54,36,31.77,31.61,4,1,6,0.00
2013-10-25,60,42,39,35,15,-100,69,47,37,31.84,31.70,3,-126,7,0.00
2013-10-26,57,43,38,34,21,-100,73,51,37,31.91,31.66,6,-72,7,0.00
2013-10-27,53,43,33,31,26,16,60,52,38,31.65,31.24,16,4,22,0.00
2013-10-28,33,26,22,17,14,11,72,61,51,31.79,31.64,24,6,31,0.00
2013-10-29,39,24,19,19,-4,-100,75,50,45,31.81,31.66,14,-167,18,0.00
2013-10-30,44,27,28,24,-11,-100,70,40,45,31.71,31.59,10,-267,14,0.00
2013-10-31,42,38,35,34,26,-100,88,66,51,31.75,31.59,12,-8,15,0.00
2013-11-1,48,40,36,38,30,-100,88,71,45,31.86,31.72,15,-6,20,0.05
2013-11-2,50,38,32,36,28,-100,90,70,44,31.71,31.18,24,-5,35,0.04
2013-11-3,36,32,28,25,21,-100,84,66,55,31.63,31.34,13,-5,19,0.00
2013-11-4,30,23,25,26,6,-100,90,72,70,31.86,31.63,12,-134,14,0.01
2013-11-5,31,21,23,28,-10,-100,91,58,57,31.93,31.85,11,-253,14,0.00
2013-11-6,40,35,31,30,28,25,93,77,58,32.02,31.86,11,2,13,0.02
2013-11-7,45,38,32,39,33,27,91,82,69,31.98,31.31,19,6,29,0.24
2013-11-8,38,36,34,33,29,21,88,76,53,31.79,31.45,15,6,18,0.00
2013-11-9,39,32,30,29,19,-100,82,69,61,31.89,31.79,8,-61,11,0.00
2013-11-10,48,37,33,38,26,-100,85,73,66,31.82,31.73,6,-51,9,0.00
2013-11-11,48,40,35,40,36,33,93,85,68,32.02,31.81,6,1,10,0.00
2013-11-12,46,38,31,40,34,30,95,87,66,32.02,31.94,7,2,9,0.01
2013-11-13,46,41,38,38,32,-100,85,71,54,31.96,31.83,18,-6,26,0.00
2013-11-14,42,34,33,30,14,-100,73,59,59,31.83,31.43,6,-104,9,0.00
2013-11-15,38,35,33,26,23,20,75,63,51,31.43,30.98,13,5,19,0.01
2013-11-16,33,31,27,30,26,22,93,83,70,31.27,30.84,21,8,26,0.06
2013-11-17,36,25,26,27,4,-100,92,67,59,31.66,31.28,19,-160,28,0.03
2013-11-18,44,38,33,28,22,19,64,53,44,31.66,31.35,23,7,27,0.00
2013-11-19,47,41,36,36,32,-100,89,72,53,31.35,31.14,25,2,30,0.02
2013-11-20,39,31,20,36,18,6,89,60,41,32.00,31.20,14,6,26,0.05
2013-11-21,26,15,14,12,-20,-100,70,43,46,32.46,32.01,9,-251,12,0.00
2013-11-22,30,16,14,15,-23,-100,78,44,48,32.49,32.46,11,-304,11,0.00
2013-11-23,30,16,18,17,-26,-100,76,42,57,32.46,32.14,5,-354,5,0.00
2013-11-24,34,21,18,21,-7,-100,84,55,58,32.12,31.99,3,-218,5,0.00
2013-11-25,40,28,25,24,3,-100,75,53,51,32.17,32.05,4,-145,8,0.00
2013-11-26,39,23,29,27,-17,-100,74,44,57,32.11,31.84,3,-322,5,0.00
2013-11-27,39,22,28,28,-16,-100,83,49,61,31.86,31.76,5,-329,6,0.00
2013-11-28,36,14,25,28,-42,-100,88,35,69,31.86,31.78,4,-541,6,0.00
2013-11-29,40,15,28,28,-48,-100,85,28,56,31.92,31.82,6,-582,8,0.00
2013-11-30,40,36,36,34,23,-100,83,72,69,31.88,31.78,6,-62,8,0.01
2013-12-1,39,37,36,36,32,-100,94,86,74,31.76,31.26,27,2,31,0.17
2013-12-2,38,21,17,36,-6,-100,94,64,68,31.57,31.11,21,-235,27,0.34
2013-12-3,16,5,8,13,-51,-100,85,31,53,32.09,31.58,10,-508,17,0.00
2013-12-4,9,4,2,-3,-31,-100,70,45,55,32.26,32.10,6,-265,10,0.00
2013-12-5,5,0,-3,-2,-66,-100,82,28,66,32.27,32.17,4,-631,10,0.00
2013-12-6,2,-1,-6,-6,-54,-100,68,32,56,32.35,32.24,9,-455,18,0.00
2013-12-7,-1,-3,-10,-13,-55,-100,71,34,57,32.35,32.21,7,-468,9,0.00
2013-12-8,3,-1,-9,-3,-52,-100,84,41,72,32.49,32.32,4,-473,5,0.00
2013-12-9,17,3,-2,13,-67,-100,89,27,79,32.49,32.17,7,-683,8,0.00
2013-12-10,23,6,21,17,-66,-100,82,23,76,32.17,32.07,5,-704,9,0.00
2013-12-11,29,11,19,19,-49,-100,85,33,67,32.18,32.09,11,-563,14,0.11
2013-12-12,35,18,24,23,-28,-100,77,39,53,32.10,31.76,8,-399,12,0.00
2013-12-13,34,24,28,29,-2,-100,90,65,73,32.04,31.74,8,-228,14,0.01
2013-12-14,40,32,32,30,12,-100,86,63,55,32.06,31.90,15,-121,21,0.00
2013-12-15,45,32,37,31,-3,-100,66,41,40,31.92,31.77,8,-227,13,0.00
2013-12-16,44,40,36,28,23,19,65,52,43,31.97,31.80,9,4,17,0.00
2013-12-17,52,28,34,26,-26,-100,56,23,29,31.97,31.46,7,-382,16,0.00
2013-12-18,45,38,29,27,24,19,90,57,36,31.47,31.29,16,4,19,0.00
2013-12-19,28,19,18,26,-4,-100,90,64,65,31.82,31.38,13,-177,16,0.00
2013-12-20,24,12,16,20,-31,-100,91,48,59,31.78,31.33,8,-394,11,0.00
2013-12-21,32,19,23,25,-16,-100,92,56,68,31.73,31.36,11,-310,16,0.12
2013-12-22,35,32,28,28,26,25,87,80,71,31.93,31.70,12,3,14,0.01
2013-12-23,41,35,31,35,29,-100,90,80,63,31.93,31.56,20,-3,27,0.16
2013-12-24,34,30,27,25,18,-100,80,65,56,32.22,31.79,17,-16,24,0.00
2013-12-25,34,17,20,19,-32,-100,79,36,50,32.22,32.10,6,-415,11,0.00
2013-12-26,45,34,29,28,9,-100,64,50,50,32.12,31.91,11,-116,13,0.00
2013-12-27,46,30,33,26,-8,-100,65,38,33,31.91,31.57,14,-250,21,0.00
2013-12-28,39,33,27,27,22,17,72,64,58,32.04,31.61,13,4,19,0.00
2013-12-29,33,20,26,23,-24,-100,71,41,57,32.06,31.87,9,-356,15,0.00
2013-12-30,40,29,31,33,3,-100,87,58,62,31.93,31.67,11,-188,25,0.02
2013-12-31,39,37,33,33,30,25,85,75,66,31.83,31.60,11,4,18,0.01
2014-1-1,38,26,29,24,-7,-100,72,49,53,32.04,31.83,12,-238,16,0.00
2014-1-2,48,31,27,33,8,-100,77,55,48,32.00,31.40,18,-124,27,0.00